User: anonymous   Login
Location: Baix
(44.7118°N, 4.7648°E)
Time: 17:37:57
(UTC+00:00)
Language:

Vanguard 1 - Orbit

View from above orbital plane
View from above orbital plane
View from above satellite
View from above satellite

Ground track
Ground track

The orbit data is extracted from the following two-line orbital elements,

1 00005U 58002B   20338.57969452 -.00000036  00000-0 -22877-4 0  9994
2 00005  34.2474  67.2404 1846246  33.4588 337.0055 10.84867494223625
Epoch (UTC): 03 December 2020 13:54:45
Eccentricity: 0.1846246
inclination: 34.2474°
perigee height: 650 km
apogee height: 3833 km
right ascension of ascending node: 67.2404°
argument of perigee: 33.4588°
revolutions per day: 10.84867494
mean anomaly at epoch: 337.0055°
orbit number at epoch: 22362

The dashed part of the orbit path shows where the satellite is in the earth's shadow,  

DLR